SCOUT A DEB, 2386

Orbit data source: Space-Track

SCOUT A DEB, 2386 is space debris in LEO originally from a launch on Sat, 26 Mar 1966 UTC launched from the Air Force Western Test Range (AFWTR). Debris objects in space refer to the collection of defunct objects orbiting the Earth. Examples of debris include non-operational satellites, rocket bodies, and fragments generated from explosions, collisions, or faulty payload assembly.

Loading next visibility...
SCOUT A DEB details
Identifier
2386, 1966-024D
Orbit
LEO
Last TLE update9 hours ago
Origin
Flag of USUSN BuWeps (US)
ManufacturerUnknown
MissionSpacecraft
Bus & MotorUnknown
MassUnknown
Launch date (UTC)
1966-03-26 (59 years ago)
Launch vehicleUnknown
Launch site
Air Force Western Test Range (AFWTR)
Object type
Payload
Rocket body
Debris
Shape & HBRUnknown
Radar Cross SectionSmall (<0.1 m²)

Expand to show TLE details & history

TLE from 9 hours ago
0 SCOUT A DEB
1  2386U 66024D   24356.12960141  .00000471  00000-0  40908-3 0  9997
2  2386  90.0582 328.4810 0127937 192.1570 167.6504 13.81178441628873
Epoch: 2024-12-21T03:06Z
Definitive object data (Epoch: 2024-12-21T03:06:37.561Z)
Latitude-0.00005°
Longitude-168.36069°
Altitude1,054.488 km
Speed7.279 km/s
True Right ascension21h 53m 55s
True Declination0° 00' 00"
Sunlit
Object was in daylight at TLE epoch
Visualization TLE readout
Latitude85.61915°
Longitude12.39744°
Altitude983.128 km
Speed7.362 km/s
Apparent Right ascension23h 28m 03s
Apparent Declination36° 35' 34"
Sunlit
Object is in daylight
Visualization observer readout
Local Sidereal Time11:17:50
Azimuth357.891° N
Elevation-13.455°
Doppler factor1
Orbital elements
Apogee altitude1,050.554 km
Perigee altitude862.874 km
Semi-major axis7,334.851 km
Eccentricity0.0127937
Inclination90.0582°
RAAN328.481°
Arg. of periapsis192.157°
True anomaly167.95913°
Mean anomaly167.6504°
Eccentric anomaly167.80524°
Mean motion3.45507 °/min
BSTAR0.00040908
Orbital period104.19 mins
Loading maneuver chart data...
Loading historical data...
Loading historical data...
Loading historical data...
Loading historical data...
Loading historical data...
Loading historical data...
Loading historical data...

SCOUT A DEB Visibility forecast

Observer location: undefined°, undefined

Span
Click to sort rows by Start time (UTC) header in descending order
Start Az.
Max El. time (UTC)
Max El. Az.
Max El.
End time (UTC)
End Az.
4 mins2024-12-21 12:26:04.397Z311.835° NW2024-12-21 12:28:04.397Z290.574° WNW13.061°2024-12-21 12:30:04.397Z268.886° W
11 mins2024-12-21 22:21:04.397Z157.405° SSE2024-12-21 22:26:04.397Z85.641° E40.729°2024-12-21 22:32:04.397Z6.291° NNE
8 mins2024-12-22 00:07:04.397Z241.037° WSW2024-12-22 00:10:04.397Z273.102° WNW20.038°2024-12-22 00:15:04.397Z325.89° NNW
4 mins2024-12-22 09:19:04.397Z59.195° ENE2024-12-22 09:21:04.397Z82.858° E15.046°2024-12-22 09:23:04.397Z105.451° ESE
9 mins2024-12-22 11:01:04.397Z353.312° N2024-12-22 11:05:04.397Z291.407° WNW42.074°2024-12-22 11:10:04.397Z197.059° SSW
|